Location: Dillon
(41.1766°N, 107.0923°W)
Time: 13:28:39
(UTC+00:00)

FALCONSAT 3 - Pass Details

Date: 01 July 2022
Orbit: 393 x 398 km, 35.4° (Epoch: 14 August)

Event Time Altitude Azimuth Distance (km) Brightness Sun altitude
Rises 03:25:25 0° 218° (SW) 2,326 ? -7.0°
Reaches altitude 10° 03:28:18 10° 191° (S) 1,463 ? -7.4°
Maximum altitude 03:30:03 14° 159° (SSE) 1,258 ? -7.7°
Enters shadow 03:31:36 11° 130° (SE) 1,415 ? -7.9°
